Location: Barletta
(41.3170°N, 16.2830°E)
Time: 03:42:54
(UTC+02:00)

ISS - Pass Details

Date: 12 May 2021
Orbit: 417 x 422 km, 51.6° (Epoch: 14 June)

Event Time Altitude Azimuth Distance (km) Brightness Sun altitude
Exits shadow 01:17:37 14° 17° (NNE) 1,270 -0.5 -30.2°
Drops below altitude 10° 01:18:36 10° 31° (NNE) 1,508 -0.2 -30.2°
Sets 01:21:12 0° 52° (NE) 2,375 0.7 -30.1°
